Wind_Speed
21 21 20 18 18 17 17 18 18 17 16 16 16 17 18 17 17 17 16 16 15 15 13 13 13 12 12 14 16 16 17 18 17 18 18 18 18 20 18 18 18 17 18
25 21 21 19 18 18 18 18 19 17 15 14 13 13 15 14 14 14 13 13 13 13 12 12 11 11 12 13 15 15 15 17 17 18 18 17 17 16 16 19 18 16 16
25 21 20 20 20 18 18 17 17 16 14 12 11 11 11 10 10 11 10 10 10 10 10 11 10 11 12 12 13 13 13 13 14 15 18 14 13 14 15 15 16 15 15
24 22 19 22 21 18 19 17 17 15 13 11 9 10 9 8 7 7 7 6 6 7 8 8 9 9 11 11 11 12 11 11 14 11 8 11 12 12 13 14 13 13 12
23 23 20 22 22 20 20 18 16 13 12 10 9 9 7 6 5 4 4 3 3 5 6 7 8 8 8 10 10 11 11 11 9 3 8 11 11 11 13 13 13 12 10
24 23 19 19 19 20 18 18 14 11 10 9 8 7 6 4 3 2 2 3 4 4 5 6 7 7 8 10 11 10 10 8 7 6 7 9 13 13 13 9 9 9 8
28 23 19 19 18 18 17 15 13 11 9 8 6 5 4 3 4 4 4 5 4 4 4 4 5 6 6 7 10 9 8 6 5 6 10 8 12 12 10 10 9 8 6
27 21 19 17 17 15 14 13 11 9 7 6 5 3 3 3 4 5 5 5 5 5 4 4 4 4 5 6 7 9 7 6 5 7 6 10 11 10 9 8 7 7 6
22 23 18 15 13 14 14 11 9 6 4 3 2 2 3 5 6 6 5 6 5 5 4 4 3 4 5 6 6 8 8 8 9 6 9 9 12 10 8 7 6 6 6
23 18 17 15 15 14 13 12 10 7 6 5 4 4 8 11 12 12 9 7 6 5 4 4 4 4 6 6 6 7 7 8 9 8 10 11 9 10 8 7 6 7 5
20 22 21 18 16 16 16 15 12 10 7 7 6 9 11 12 12 16 14 10 6 5 5 5 6 6 7 8 8 9 10 10 11 13 12 12 7 10 7 7 6 6 6
18 22 19 19 20 19 20 18 17 17 20 20 17 13 11 13 12 4 10 7 4 5 6 7 7 7 9 11 10 10 10 10 7 8 11 10 9 11 7 7 8 8 7
17 20 16 16 13 18 24 20 15 18 23 17 18 23 13 13 10 6 5 1 4 6 8 7 8 8 11 13 16 10 10 9 9 7 11 8 11 13 11 9 10 10 11
16 19 16 16 18 17 16 19 16 16 18 22 16 13 13 13 12 6 2 2 3 8 8 8 13 6 5 3 5 4 4 9 6 8 12 7 9 11 9 9 10 11 11
18 19 17 21 19 15 18 14 16 12 16 15 13 14 14 13 11 1 2 3 5 5 5 6 6 6 6 6 7 5 7 7 10 11 13 7 7 9 10 10 12 12 12
15 21 21 23 16 17 16 18 14 9 13 11 15 14 15 12 6 2 2 7 9 5 5 6 6 8 6 9 7 7 8 8 9 8 6 9 8 9 11 12 12 14 14
15 16 14 20 18 16 15 17 16 11 12 11 12 14 12 7 5 5 5 5 8 6 5 7 6 6 7 8 7 5 9 9 9 10 11 11 14 14 11 12 13 14 14
14 16 14 13 18 15 17 16 14 14 11 10 8 11 11 11 7 7 6 7 8 11 9 8 9 9 9 4 10 8 9 11 11 10 11 13 12 14 14 12 11 13 14
15 13 12 11 12 14 12 12 12 15 11 10 10 11 12 10 11 8 8 5 4 9 10 10 5 5 5 8 13 8 10 11 11 12 12 13 10 11 10 11 7 9 14
13 14 13 12 10 10 10 11 11 12 12 12 11 11 10 11 11 10 7 5 4 4 6 7 5 5 9 7 11 8 11 12 11 11 12 13 13 11 11 11 8 10 13
15 16 16 16 15 15 14 11 12 12 12 10 12 12 9 12 11 11 10 6 6 5 4 3 4 6 8 8 10 16 14 16 13 12 12 12 14 13 13 13 11 11 13
18 17 16 16 16 17 15 14 13 13 10 9 11 9 11 12 14 14 12 10 8 7 7 7 8 7 10 13 10 14 7 11 19 11 13 14 14 13 13 13 12 11 9
18 19 18 17 16 16 14 13 11 10 7 8 10 13 13 14 13 14 13 12 9 8 10 8 8 8 9 8 10 8 5 4 23 6 10 16 16 15 12 11 13 13 13
17 18 18 17 17 16 16 14 13 9 9 9 10 11 8 11 12 11 11 13 12 10 11 11 8 8 8 7 13 17 15 8 5 1 8 12 16 15 14 14 14 15 14
17 17 17 17 17 16 17 17 14 14 15 10 10 7 7 7 10 12 12 16 15 13 14 13 5 8 11 8 12 24 17 8 11 8 3 11 12 12 12 12 12 12 14
16 15 17 17 16 16 16 16 18 12 11 12 6 8 10 10 12 14 14 14 15 17 14 13 12 13 14 16 18 19 17 9 10 11 2 6 9 15 12 10 9 11 11
Wind_Direction
147 150 152 151 146 143 137 138 140 137 131 126 125 119 111 106 102 103 102 100 98 98 97 103 103 107 106 105 105 104 107 105 104 105 102 101 101 104 99 104 95 95 94
143 149 152 154 153 152 146 145 147 143 138 137 132 126 118 111 104 100 99 98 101 104 102 103 107 108 109 113 111 110 108 114 110 111 112 107 101 95 91 102 106 103 101
141 149 152 157 158 154 152 149 148 142 142 139 137 130 122 115 110 103 101 99 105 111 113 117 115 112 113 117 121 118 118 122 122 122 114 102 109 104 102 102 100 103 102
140 146 153 164 162 158 157 153 150 140 143 141 140 132 128 123 116 111 111 115 119 121 121 120 119 119 121 123 130 130 130 130 132 141 160 113 112 112 112 109 108 105 105
143 143 148 158 165 165 163 154 145 141 142 135 137 137 131 131 124 122 129 141 148 150 147 142 134 135 136 136 140 139 134 128 129 133 120 119 124 127 117 108 102 104 114
149 139 151 154 154 156 159 161 153 145 142 138 135 133 131 138 145 156 163 184 191 182 162 152 147 154 159 152 147 148 146 137 138 135 134 151 134 137 127 124 127 126 116
133 139 146 156 156 158 156 162 159 150 148 148 147 148 143 157 183 203 192 191 185 182 181 181 164 163 174 166 159 163 171 162 233 149 140 148 130 137 136 138 130 128 116
136 145 151 156 161 157 141 150 153 152 156 155 174 182 182 195 209 228 205 182 179 172 170 176 166 168 170 180 182 182 199 176 197 179 177 155 151 145 147 149 138 139 141
128 134 150 157 150 142 143 148 147 145 159 176 196 206 230 224 222 216 203 187 182 177 174 170 164 168 171 174 188 210 214 206 230 214 191 150 159 157 159 158 156 157 161
141 150 154 162 159 162 149 145 147 141 166 186 207 255 260 240 222 202 189 182 181 186 187 188 176 172 176 166 185 207 209 201 231 241 234 146 157 173 170 180 188 180 188
144 158 163 161 169 156 152 147 157 191 220 218 229 239 254 264 250 225 176 170 184 200 192 195 198 194 188 181 184 200 215 214 219 225 230 169 202 188 187 196 198 213 217
164 160 160 171 161 165 169 184 209 215 235 248 252 269 293 295 269 12 139 138 189 204 209 198 203 215 208 204 194 193 209 222 247 240 204 182 213 215 218 222 212 219 230
169 154 171 166 163 177 184 192 204 220 229 254 248 254 277 290 294 294 56 95 235 223 209 199 203 209 217 226 211 203 229 216 200 221 176 209 232 230 233 237 222 217 227
161 155 172 168 179 177 182 204 217 232 238 236 256 244 264 286 280 196 153 240 230 229 212 212 231 207 225 273 294 285 288 229 232 191 185 200 203 211 217 227 231 224 224
155 154 178 165 182 179 183 206 215 226 229 236 242 229 239 253 264 60 128 219 234 229 223 225 232 229 209 251 226 236 245 249 241 231 182 183 219 223 232 236 236 229 225
164 161 166 172 173 186 191 201 194 211 230 239 233 234 229 261 240 138 161 233 258 203 210 204 213 247 206 227 212 240 237 239 232 251 234 210 239 245 243 241 241 230 227
167 160 169 163 170 176 184 189 193 207 221 230 238 238 220 235 278 298 281 241 235 238 233 229 226 242 244 254 244 229 236 230 230 223 238 259 226 237 236 236 238 226 225
164 167 178 182 176 177 184 179 196 212 223 228 233 224 211 231 238 244 232 246 250 237 238 219 216 214 231 231 255 209 207 235 210 230 236 246 268 229 220 223 218 221 221
164 165 189 189 186 173 187 194 205 211 213 225 223 231 215 218 230 229 234 243 207 230 220 237 177 199 247 250 249 222 224 225 218 233 239 241 245 267 234 211 206 222 223
172 173 186 188 194 190 192 215 225 222 219 219 219 233 206 219 224 227 233 228 235 231 231 245 158 200 252 243 267 305 235 239 233 238 238 232 234 226 241 182 195 224 225
183 186 185 192 189 192 199 203 225 230 229 208 215 219 214 224 220 224 236 226 225 226 241 242 217 216 235 264 281 253 234 213 217 225 230 238 235 213 225 223 229 239 212
190 194 193 196 196 199 202 213 209 227 226 218 228 222 226 225 222 223 225 222 224 219 229 232 213 222 246 244 236 286 238 344 238 207 225 224 232 217 222 213 221 227 220
186 194 194 196 199 205 213 215 220 234 235 225 219 224 223 221 235 225 221 225 220 221 218 230 217 215 244 289 336 305 329 72 281 163 213 222 211 217 227 216 217 223 224
189 193 197 197 201 207 210 219 224 220 235 233 239 229 248 219 232 236 224 221 224 224 218 230 221 218 225 317 323 265 268 298 294 351 231 207 196 207 211 217 217 223 225
185 188 194 197 201 210 211 219 225 226 234 230 226 203 222 247 237 232 222 216 222 226 224 233 215 198 200 209 249 269 276 242 243 275 29 301 211 202 208 208 218 218 214
176 187 191 192 201 207 213 219 228 242 248 273 209 247 241 225 233 220 228 223 223 229 237 223 216 204 197 212 236 250 274 323 296 254 359 281 161 202 191 192 204 203 206
Height
803 807 810 813 816 819 822 824 827 829 831 832 834 836 837 838 839 840 841 842 844 846 847 848 848 848 849 848 848 848 850 850 850 851 853 854 854 855 856 856 857 859 858
801 808 811 815 818 821 823 825 828 831 834 836 838 839 840 840 841 842 844 845 847 848 849 850 851 850 851 851 851 851 852 852 853 854 854 855 856 857 858 858 858 860 861
802 809 813 816 819 822 825 828 831 833 836 838 840 842 843 843 844 845 847 849 850 850 851 852 852 853 853 853 853 854 854 855 855 855 855 857 859 859 860 860 861 863 864
803 809 814 817 821 824 827 830 833 835 837 840 842 844 845 846 847 848 849 851 852 853 853 854 854 855 855 855 855 856 856 856 856 855 856 859 861 861 861 862 863 864 865
805 809 815 819 823 826 829 832 835 838 839 842 844 845 847 848 849 850 851 852 852 853 854 854 855 856 856 856 857 857 858 858 858 857 859 860 862 863 863 864 865 866 868
804 811 818 821 825 828 831 834 837 840 842 844 846 847 848 850 851 852 852 853 853 853 854 855 856 856 857 857 858 859 859 860 858 859 861 862 862 864 865 867 867 868 869
805 813 820 823 826 829 832 836 839 842 844 846 848 848 850 852 852 853 853 852 853 853 854 855 856 856 856 856 858 859 860 860 859 860 860 862 864 865 866 868 868 869 870
806 813 820 825 828 832 835 838 841 844 845 846 849 850 850 851 852 852 853 853 853 854 854 855 856 856 857 858 859 859 861 860 860 860 861 860 863 866 868 868 870 870 871
809 814 823 827 832 835 838 840 843 845 847 848 849 850 849 849 849 850 852 853 853 854 855 855 855 856 857 858 859 859 859 860 860 860 860 860 862 866 868 869 870 871 872
811 818 824 828 832 836 839 841 843 844 846 847 848 848 847 844 844 843 846 850 853 854 855 855 855 855 856 857 858 859 859 860 861 859 859 859 862 865 867 868 869 871 872
811 817 822 826 831 836 838 839 841 841 845 845 846 844 842 848 848 849 840 846 851 853 854 855 855 855 856 856 856 857 857 857 858 858 858 857 862 864 866 867 868 870 871
810 816 821 825 830 832 836 837 840 842 844 844 845 843 844 846 835 836 839 844 850 852 854 854 855 854 853 854 853 853 855 853 854 855 857 858 861 863 865 866 867 869 870
809 816 821 825 830 832 834 838 840 841 841 843 843 844 846 846 843 841 840 845 849 852 853 853 853 853 851 849 852 850 850 852 852 854 856 856 859 862 863 865 866 867 869
808 815 821 824 830 833 837 837 839 840 841 842 842 843 844 843 840 840 843 848 849 852 852 853 851 851 851 850 850 850 851 852 852 852 854 855 858 860 861 862 864 865 866
809 815 820 824 829 833 837 838 839 841 840 841 842 843 845 844 843 842 845 849 850 849 850 851 851 850 851 850 851 852 852 850 851 850 851 854 856 858 859 860 861 862 863
809 814 818 823 828 832 835 837 839 839 840 842 843 844 844 843 844 844 846 847 848 849 850 850 851 850 850 848 849 851 852 852 852 852 850 851 853 854 855 856 857 859 860
808 813 818 820 825 830 833 835 836 839 839 841 841 842 841 844 844 843 846 846 848 848 849 849 849 849 848 848 847 848 850 850 850 851 852 850 848 849 850 851 853 856 858
807 812 816 818 823 826 828 832 834 836 838 838 839 840 841 843 843 845 846 846 847 847 846 846 846 846 846 846 845 844 846 846 847 849 849 847 846 846 847 848 849 852 855
805 810 814 817 820 823 828 829 832 833 835 836 837 838 839 840 842 843 843 844 844 844 844 843 843 844 846 845 842 840 840 841 842 842 844 844 844 845 845 846 847 849 852
803 808 813 816 819 823 826 829 829 830 832 833 835 835 836 838 839 840 841 842 842 842 842 842 842 844 844 842 839 834 835 835 837 837 838 840 841 842 844 845 845 847 848
800 805 809 813 817 821 824 826 827 828 830 830 831 833 834 836 837 838 838 840 840 842 842 842 843 844 842 840 838 828 826 830 829 831 833 834 835 837 839 842 843 843 843
797 802 807 811 815 819 821 822 824 825 826 827 830 831 832 834 834 835 836 836 838 839 841 842 842 842 841 836 833 826 827 822 825 823 826 828 830 832 834 836 840 842 843
791 798 803 808 812 816 819 821 822 823 824 824 823 827 828 829 831 832 834 835 836 837 838 838 839 840 837 832 830 830 827 837 829 813 818 821 824 827 829 832 835 838 840
787 794 799 805 809 813 816 817 819 822 823 822 823 823 826 826 827 829 830 833 834 833 835 835 836 838 837 836 834 829 822 825 819 815 817 821 820 821 823 827 830 834 836
783 790 796 802 806 810 812 815 816 819 818 818 818 820 823 825 825 826 827 828 830 832 832 832 833 835 836 837 832 828 825 813 817 822 829 824 825 820 820 822 824 828 831
780 787 793 799 804 806 810 812 813 815 816 817 818 818 818 819 820 821 823 824 827 827 828 830 832 832 834 833 828 833 828 816 820 818 821 818 816 818 817 817 820 822 826